Location: Southlake
(32.9412°N, 97.1342°W)
Time: 08:26:21
(UTC+00:00)

Cosmos 1763 Rocket - Pass Details

Date: 03 December 2021
Orbit: 732 x 780 km, 74.0° (Epoch: 26 January)

Event Time Altitude Azimuth Distance (km) Brightness Sun altitude
Rises 23:36:28 0° 205° (SSW) 3,141 7.6 -3.6°
Reaches altitude 10° 23:38:50 10° 210° (SSW) 2,222 6.8 -4.1°
Maximum altitude 23:43:46 57° 289° (WNW) 860 4.1 -5.0°
Drops below altitude 10° 23:48:45 10° 8° (N) 2,247 5.6 -6.0°
Sets 23:51:10 0° 12° (NNE) 3,179 6.4 -6.5°
